Year,Month,Day,Hour,Minute,Value (Times are PST for temperature in C)
2019,03,06,00,00,-1.10
2019,03,06,00,01,-1.00
2019,03,06,00,02,-0.80
2019,03,06,00,03,-0.80
2019,03,06,00,04,-0.70
2019,03,06,00,05,-0.70
2019,03,06,00,06,-0.80
2019,03,06,00,07,-0.80
2019,03,06,00,08,-0.80
2019,03,06,00,09,-0.90
2019,03,06,00,10,-0.90
2019,03,06,00,11,-0.90
2019,03,06,00,12,-1.00
2019,03,06,00,13,-1.00
2019,03,06,00,14,-1.10
2019,03,06,00,15,-1.10
2019,03,06,00,16,-1.10
2019,03,06,00,17,-1.10
2019,03,06,00,18,-1.10
2019,03,06,00,19,-1.10
2019,03,06,00,20,-1.20
2019,03,06,00,21,-1.20
2019,03,06,00,22,-1.20
2019,03,06,00,23,-1.20
2019,03,06,00,24,-1.20
2019,03,06,00,25,-1.20
2019,03,06,00,26,-1.20
2019,03,06,00,27,-1.20
2019,03,06,00,28,-1.20
2019,03,06,00,29,-1.20
2019,03,06,00,30,-1.20
2019,03,06,00,31,-1.20
2019,03,06,00,32,-1.20
2019,03,06,00,33,-1.20
2019,03,06,00,34,-1.20
2019,03,06,00,35,-1.20
2019,03,06,00,36,-1.20
2019,03,06,00,37,-1.20
2019,03,06,00,38,-1.30
2019,03,06,00,39,-1.30
2019,03,06,00,40,-1.30
2019,03,06,00,41,-1.30
2019,03,06,00,42,-1.30
2019,03,06,00,43,-1.30
2019,03,06,00,44,-1.30
2019,03,06,00,45,-1.20
2019,03,06,00,46,-1.20
2019,03,06,00,47,-1.20
2019,03,06,00,48,-1.20
2019,03,06,00,49,-1.30
2019,03,06,00,50,-1.30
2019,03,06,00,51,-1.30
2019,03,06,00,52,-1.30
2019,03,06,00,53,-1.30
2019,03,06,00,54,-1.30
2019,03,06,00,55,-1.30
2019,03,06,00,56,-1.30
2019,03,06,00,57,-1.40
2019,03,06,00,58,-1.40
2019,03,06,00,59,-1.40
2019,03,06,01,00,-1.40
2019,03,06,01,01,-1.50
2019,03,06,01,02,-1.50
2019,03,06,01,03,-1.50
2019,03,06,01,04,-1.50
2019,03,06,01,05,-1.60
2019,03,06,01,06,-1.60
2019,03,06,01,07,-1.60
2019,03,06,01,08,-1.60
2019,03,06,01,09,-1.60
2019,03,06,01,10,-1.60
2019,03,06,01,11,-1.70
2019,03,06,01,12,-1.70
2019,03,06,01,13,-1.70
2019,03,06,01,14,-1.70
2019,03,06,01,15,-1.70
2019,03,06,01,16,-1.70
2019,03,06,01,17,-1.70
2019,03,06,01,18,-1.70
2019,03,06,01,19,-1.70
2019,03,06,01,20,-1.70
2019,03,06,01,21,-1.70
2019,03,06,01,22,-1.70
2019,03,06,01,23,-1.70
2019,03,06,01,24,-1.70
2019,03,06,01,25,-1.80
2019,03,06,01,26,-1.80
2019,03,06,01,27,-1.80
2019,03,06,01,28,-1.80
2019,03,06,01,29,-1.80
2019,03,06,01,30,-1.80
2019,03,06,01,31,-1.70
2019,03,06,01,32,-1.70
2019,03,06,01,33,-1.70
2019,03,06,01,34,-1.70
2019,03,06,01,35,-1.70
2019,03,06,01,36,-1.70
2019,03,06,01,37,-1.70
2019,03,06,01,38,-1.60
2019,03,06,01,39,-1.60
2019,03,06,01,40,-1.60
2019,03,06,01,41,-1.60
2019,03,06,01,42,-1.60
2019,03,06,01,43,-1.60
2019,03,06,01,44,-1.60
2019,03,06,01,45,-1.60
2019,03,06,01,46,-1.60
2019,03,06,01,47,-1.60
2019,03,06,01,48,-1.70
2019,03,06,01,49,-1.70
2019,03,06,01,50,-1.70
2019,03,06,01,51,-1.70
2019,03,06,01,52,-1.70
2019,03,06,01,53,-1.70
2019,03,06,01,54,-1.70
2019,03,06,01,55,-1.70
2019,03,06,01,56,-1.70
2019,03,06,01,57,-1.70
2019,03,06,01,58,-1.70
2019,03,06,01,59,-1.70
2019,03,06,02,00,-1.80
2019,03,06,02,01,-1.80
2019,03,06,02,02,-1.80
2019,03,06,02,03,-1.80
2019,03,06,02,04,-1.70
2019,03,06,02,05,-1.70
2019,03,06,02,06,-1.70
2019,03,06,02,07,-1.70
2019,03,06,02,08,-1.70
2019,03,06,02,09,-1.70
2019,03,06,02,10,-1.60
2019,03,06,02,11,-1.60
2019,03,06,02,12,-1.60
2019,03,06,02,13,-1.60
2019,03,06,02,14,-1.60
2019,03,06,02,15,-1.60
2019,03,06,02,16,-1.60
2019,03,06,02,17,-1.70
2019,03,06,02,18,-1.70
2019,03,06,02,19,-1.70
2019,03,06,02,20,-1.70
2019,03,06,02,21,-1.70
2019,03,06,02,22,-1.70
2019,03,06,02,23,-1.70
2019,03,06,02,24,-1.70
2019,03,06,02,25,-1.70
2019,03,06,02,26,-1.70
2019,03,06,02,27,-1.70
2019,03,06,02,28,-1.70
2019,03,06,02,29,-1.70
2019,03,06,02,30,-1.80
2019,03,06,02,31,-1.80
2019,03,06,02,32,-1.80
2019,03,06,02,33,-1.80
2019,03,06,02,34,-1.80
2019,03,06,02,35,-1.80
2019,03,06,02,36,-1.80
2019,03,06,02,37,-1.80
2019,03,06,02,38,-1.80
2019,03,06,02,39,-1.80
2019,03,06,02,40,-1.80
2019,03,06,02,41,-1.70
2019,03,06,02,42,-1.70
2019,03,06,02,43,-1.70
2019,03,06,02,44,-1.70
2019,03,06,02,45,-1.70
2019,03,06,02,46,-1.80
2019,03,06,02,47,-1.80
2019,03,06,02,48,-1.80
2019,03,06,02,49,-1.70
2019,03,06,02,50,-1.70
2019,03,06,02,51,-1.70
2019,03,06,02,52,-1.70
2019,03,06,02,53,-1.70
2019,03,06,02,54,-1.70
2019,03,06,02,55,-1.70
2019,03,06,02,56,-1.70
2019,03,06,02,57,-1.70
2019,03,06,02,58,-1.70
2019,03,06,02,59,-1.70
2019,03,06,03,00,-1.70
2019,03,06,03,01,-1.80
2019,03,06,03,02,-1.80
2019,03,06,03,03,-1.80
2019,03,06,03,04,-1.80
2019,03,06,03,05,-1.80
2019,03,06,03,06,-1.80
2019,03,06,03,07,-1.80
2019,03,06,03,08,-1.70
2019,03,06,03,09,-1.80
2019,03,06,03,10,-1.80
2019,03,06,03,11,-1.80
2019,03,06,03,12,-1.80
2019,03,06,03,13,-1.80
2019,03,06,03,14,-1.80
2019,03,06,03,15,-1.80
2019,03,06,03,16,-1.80
2019,03,06,03,17,-1.80
2019,03,06,03,18,-1.80
2019,03,06,03,19,-1.80
2019,03,06,03,20,-1.80
2019,03,06,03,21,-1.90
2019,03,06,03,22,-1.90
2019,03,06,03,23,-1.90
2019,03,06,03,24,-1.80
2019,03,06,03,25,-1.80
2019,03,06,03,26,-1.80
2019,03,06,03,27,-1.80
2019,03,06,03,28,-1.80
2019,03,06,03,29,-1.80
2019,03,06,03,30,-1.80
2019,03,06,03,31,-1.80
2019,03,06,03,32,-1.80
2019,03,06,03,33,-1.80
2019,03,06,03,34,-1.80
2019,03,06,03,35,-1.80
2019,03,06,03,36,-1.80
2019,03,06,03,37,-1.80
2019,03,06,03,38,-1.80
2019,03,06,03,39,-1.80
2019,03,06,03,40,-1.80
2019,03,06,03,41,-1.80
2019,03,06,03,42,-1.80
2019,03,06,03,43,-1.70
2019,03,06,03,44,-1.70
2019,03,06,03,45,-1.70
2019,03,06,03,46,-1.70
2019,03,06,03,47,-1.70
2019,03,06,03,48,-1.70
2019,03,06,03,49,-1.70
2019,03,06,03,50,-1.70
2019,03,06,03,51,-1.70
2019,03,06,03,52,-1.70
2019,03,06,03,53,-1.70
2019,03,06,03,54,-1.70
2019,03,06,03,55,-1.80
2019,03,06,03,56,-1.80
2019,03,06,03,57,-1.80
2019,03,06,03,58,-1.70
2019,03,06,03,59,-1.70
2019,03,06,04,00,-1.70
2019,03,06,04,01,-1.80
2019,03,06,04,02,-1.80
2019,03,06,04,03,-1.70
2019,03,06,04,04,-1.70
2019,03,06,04,05,-1.70
2019,03,06,04,06,-1.70
2019,03,06,04,07,-1.70
2019,03,06,04,08,-1.70
2019,03,06,04,09,-1.70
2019,03,06,04,10,-1.70
2019,03,06,04,11,-1.70
2019,03,06,04,12,-1.70
2019,03,06,04,13,-1.70
2019,03,06,04,14,-1.70
2019,03,06,04,15,-1.70
2019,03,06,04,16,-1.70
2019,03,06,04,17,-1.70
2019,03,06,04,18,-1.70
2019,03,06,04,19,-1.70
2019,03,06,04,20,-1.70
2019,03,06,04,21,-1.70
2019,03,06,04,22,-1.70
2019,03,06,04,23,-1.70
2019,03,06,04,24,-1.70
2019,03,06,04,25,-1.70
2019,03,06,04,26,-1.70
2019,03,06,04,27,-1.70
2019,03,06,04,28,-1.70
2019,03,06,04,29,-1.70
2019,03,06,04,30,-1.70
2019,03,06,04,31,-1.70
2019,03,06,04,32,-1.70
2019,03,06,04,33,-1.70
2019,03,06,04,34,-1.70
2019,03,06,04,35,-1.70
2019,03,06,04,36,-1.70
2019,03,06,04,37,-1.70
2019,03,06,04,38,-1.70
2019,03,06,04,39,-1.70
2019,03,06,04,40,-1.70
2019,03,06,04,41,-1.70
2019,03,06,04,42,-1.70
2019,03,06,04,43,-1.70
2019,03,06,04,44,-1.70
2019,03,06,04,45,-1.70
2019,03,06,04,46,-1.70
2019,03,06,04,47,-1.70
2019,03,06,04,48,-1.70
2019,03,06,04,49,-1.70
2019,03,06,04,50,-1.70
2019,03,06,04,51,-1.70
2019,03,06,04,52,-1.70
2019,03,06,04,53,-1.70
2019,03,06,04,54,-1.70
2019,03,06,04,55,-1.70
2019,03,06,04,56,-1.70
2019,03,06,04,57,-1.70
2019,03,06,04,58,-1.70
2019,03,06,04,59,-1.70
2019,03,06,05,00,-1.70
2019,03,06,05,01,-1.70
2019,03,06,05,02,-1.70
2019,03,06,05,03,-1.70
2019,03,06,05,04,-1.80
2019,03,06,05,05,-1.80
2019,03,06,05,06,-1.80
2019,03,06,05,07,-1.80
2019,03,06,05,08,-1.80
2019,03,06,05,09,-1.80
2019,03,06,05,10,-1.80
2019,03,06,05,11,-1.80
2019,03,06,05,12,-1.80
2019,03,06,05,13,-1.80
2019,03,06,05,14,-1.80
2019,03,06,05,15,-1.80
2019,03,06,05,16,-1.80
2019,03,06,05,17,-1.90
2019,03,06,05,18,-1.90
2019,03,06,05,19,-1.90
2019,03,06,05,20,-1.90
2019,03,06,05,21,-1.90
2019,03,06,05,22,-1.90
2019,03,06,05,23,-1.90
2019,03,06,05,24,-1.90
2019,03,06,05,25,-1.90
2019,03,06,05,26,-1.90
2019,03,06,05,27,-1.90
2019,03,06,05,28,-1.90
2019,03,06,05,29,-1.90
2019,03,06,05,30,-1.90
2019,03,06,05,31,-1.90
2019,03,06,05,32,-1.90
2019,03,06,05,33,-1.90
2019,03,06,05,34,-1.90
2019,03,06,05,35,-1.90
2019,03,06,05,36,-2.00
2019,03,06,05,37,-2.00
2019,03,06,05,38,-2.00
2019,03,06,05,39,-2.00
2019,03,06,05,40,-2.00
2019,03,06,05,41,-2.00
2019,03,06,05,42,-2.00
2019,03,06,05,43,-2.00
2019,03,06,05,44,-2.00
2019,03,06,05,45,-2.00
2019,03,06,05,46,-2.00
2019,03,06,05,47,-2.00
2019,03,06,05,48,-2.00
2019,03,06,05,49,-2.00
2019,03,06,05,50,-2.00
2019,03,06,05,51,-2.00
2019,03,06,05,52,-2.00
2019,03,06,05,53,-2.00
2019,03,06,05,54,-2.00
2019,03,06,05,55,-2.00
2019,03,06,05,56,-2.00
2019,03,06,05,57,-2.00
2019,03,06,05,58,-2.10
2019,03,06,05,59,-2.10
2019,03,06,06,00,-2.10
2019,03,06,06,01,-2.10
2019,03,06,06,02,-2.10
2019,03,06,06,03,-2.10
2019,03,06,06,04,-2.10
2019,03,06,06,05,-2.10
2019,03,06,06,06,-2.10
2019,03,06,06,07,-2.10
2019,03,06,06,08,-2.00
2019,03,06,06,09,-2.00
2019,03,06,06,10,-2.10
2019,03,06,06,11,-2.10
2019,03,06,06,12,-2.10
2019,03,06,06,13,-2.10
2019,03,06,06,14,-2.10
2019,03,06,06,15,-2.10
2019,03,06,06,16,-2.10
2019,03,06,06,17,-2.10
2019,03,06,06,18,-2.10
2019,03,06,06,19,-2.10
2019,03,06,06,20,-2.00
2019,03,06,06,21,-2.00
2019,03,06,06,22,-2.00
2019,03,06,06,23,-2.00
2019,03,06,06,24,-2.00
2019,03,06,06,25,-2.00
2019,03,06,06,26,-2.00
2019,03,06,06,27,-2.00
2019,03,06,06,28,-1.90
2019,03,06,06,29,-1.90
2019,03,06,06,30,-1.90
2019,03,06,06,31,-1.90
2019,03,06,06,32,-1.90
2019,03,06,06,33,-1.90
2019,03,06,06,34,-1.90
2019,03,06,06,35,-1.90
2019,03,06,06,36,-1.90
2019,03,06,06,37,-1.90
2019,03,06,06,38,-1.90
2019,03,06,06,39,-1.90
2019,03,06,06,40,-1.90
2019,03,06,06,41,-1.90
2019,03,06,06,42,-1.90
2019,03,06,06,43,-1.90
2019,03,06,06,44,-1.90
2019,03,06,06,45,-1.90
2019,03,06,06,46,-1.90
2019,03,06,06,47,-1.90
2019,03,06,06,48,-1.90
2019,03,06,06,49,-1.90
2019,03,06,06,50,-1.90
2019,03,06,06,51,-2.00
2019,03,06,06,52,-2.00
2019,03,06,06,53,-2.00
2019,03,06,06,54,-2.00
2019,03,06,06,55,-2.00
2019,03,06,06,56,-2.00
2019,03,06,06,57,-2.00
2019,03,06,06,58,-2.00
2019,03,06,06,59,-2.00
2019,03,06,07,00,-2.00
2019,03,06,07,01,-2.00
2019,03,06,07,02,-2.00
2019,03,06,07,03,-2.00
2019,03,06,07,04,-2.00
2019,03,06,07,05,-2.00
2019,03,06,07,06,-2.00
2019,03,06,07,07,-1.90
2019,03,06,07,08,-1.90
2019,03,06,07,09,-1.90
2019,03,06,07,10,-1.90
2019,03,06,07,11,-1.90
2019,03,06,07,12,-1.90
2019,03,06,07,13,-1.90
2019,03,06,07,14,-1.90
2019,03,06,07,15,-1.90
2019,03,06,07,16,-1.90
2019,03,06,07,17,-1.90
2019,03,06,07,18,-1.90
2019,03,06,07,19,-1.90
2019,03,06,07,20,-1.90
2019,03,06,07,21,-1.90
2019,03,06,07,22,-1.90
2019,03,06,07,23,-1.90
2019,03,06,07,24,-1.90
2019,03,06,07,25,-1.90
2019,03,06,07,26,-1.80
2019,03,06,07,27,-1.80
2019,03,06,07,28,-1.80
2019,03,06,07,29,-1.80
2019,03,06,07,30,-1.80
2019,03,06,07,31,-1.80
2019,03,06,07,32,-1.80
2019,03,06,07,33,-1.80
2019,03,06,07,34,-1.80
2019,03,06,07,35,-1.80
2019,03,06,07,36,-1.80
2019,03,06,07,37,-1.80
2019,03,06,07,38,-1.70
2019,03,06,07,39,-1.70
2019,03,06,07,40,-1.70
2019,03,06,07,41,-1.70
2019,03,06,07,42,-1.70
2019,03,06,07,43,-1.70
2019,03,06,07,44,-1.70
2019,03,06,07,45,-1.60
2019,03,06,07,46,-1.60
2019,03,06,07,47,-1.60
2019,03,06,07,48,-1.60
2019,03,06,07,49,-1.60
2019,03,06,07,50,-1.50
2019,03,06,07,51,-1.50
2019,03,06,07,52,-1.50
2019,03,06,07,53,-1.50
2019,03,06,07,54,-1.40
2019,03,06,07,55,-1.40
2019,03,06,07,56,-1.40
2019,03,06,07,57,-1.40
2019,03,06,07,58,-1.30
2019,03,06,07,59,-1.30
2019,03,06,08,00,-1.30
2019,03,06,08,01,-1.20
2019,03,06,08,02,-1.20
2019,03,06,08,03,-1.10
2019,03,06,08,04,-1.10
2019,03,06,08,05,-1.00
2019,03,06,08,06,-0.90
2019,03,06,08,07,-0.90
2019,03,06,08,08,-0.80
2019,03,06,08,09,-0.80
2019,03,06,08,10,-0.70
2019,03,06,08,11,-0.70
2019,03,06,08,12,-0.70
2019,03,06,08,13,-0.60
2019,03,06,08,14,-0.60
2019,03,06,08,15,-0.50
2019,03,06,08,16,-0.50
2019,03,06,08,17,-0.40
2019,03,06,08,18,-0.40
2019,03,06,08,19,-0.30
2019,03,06,08,20,-0.30
2019,03,06,08,21,-0.30
2019,03,06,08,22,-0.30
2019,03,06,08,23,-0.30
2019,03,06,08,24,-0.20
2019,03,06,08,25,-0.20
2019,03,06,08,26,-0.20
2019,03,06,08,27,-0.20
2019,03,06,08,28,-0.10
2019,03,06,08,29,-0.10
2019,03,06,08,30,0.00
2019,03,06,08,31,0.00
2019,03,06,08,32,0.10
2019,03,06,08,33,0.10
2019,03,06,08,34,0.10
2019,03,06,08,35,0.20
2019,03,06,08,36,0.20
2019,03,06,08,37,0.20
2019,03,06,08,38,0.20
2019,03,06,08,39,0.30
2019,03,06,08,40,0.30
2019,03,06,08,41,0.30
2019,03,06,08,42,0.40
2019,03,06,08,43,0.40
2019,03,06,08,44,0.50
2019,03,06,08,45,0.50
2019,03,06,08,46,0.60
2019,03,06,08,47,0.70
2019,03,06,08,48,0.70
2019,03,06,08,49,0.70
2019,03,06,08,50,0.80
2019,03,06,08,51,0.80
2019,03,06,08,52,0.90
2019,03,06,08,53,0.90
2019,03,06,08,54,1.00
2019,03,06,08,55,1.10
2019,03,06,08,56,1.10
2019,03,06,08,57,1.20
2019,03,06,08,58,1.30
2019,03,06,08,59,1.30
2019,03,06,09,00,1.40
2019,03,06,09,01,1.50
2019,03,06,09,02,1.60
2019,03,06,09,03,1.70
2019,03,06,09,04,1.80
2019,03,06,09,05,1.80
2019,03,06,09,06,1.90
2019,03,06,09,07,2.00
2019,03,06,09,08,2.10
2019,03,06,09,09,2.20
2019,03,06,09,10,2.30
2019,03,06,09,11,2.30
2019,03,06,09,12,2.40
2019,03,06,09,13,2.50
2019,03,06,09,14,2.50
2019,03,06,09,15,2.60
2019,03,06,09,16,2.60
2019,03,06,09,17,2.70
2019,03,06,09,18,2.70
2019,03,06,09,19,2.70
2019,03,06,09,20,2.80
2019,03,06,09,21,2.80
2019,03,06,09,22,2.80
2019,03,06,09,23,2.80
2019,03,06,09,24,2.80
2019,03,06,09,25,2.90
2019,03,06,09,26,2.90
2019,03,06,09,27,2.90
2019,03,06,09,28,2.80
2019,03,06,09,29,2.80
2019,03,06,09,30,2.90
2019,03,06,09,31,2.90
2019,03,06,09,32,2.90
2019,03,06,09,33,3.00
2019,03,06,09,34,3.00
2019,03,06,09,35,3.10
2019,03,06,09,36,3.10
2019,03,06,09,37,3.20
2019,03,06,09,38,3.20
2019,03,06,09,39,3.20
2019,03,06,09,40,3.20
2019,03,06,09,41,3.20
2019,03,06,09,42,3.30
2019,03,06,09,43,3.30
2019,03,06,09,44,3.30
2019,03,06,09,45,3.30
2019,03,06,09,46,3.40
2019,03,06,09,47,3.40
2019,03,06,09,48,3.40
2019,03,06,09,49,3.50
2019,03,06,09,50,3.60
2019,03,06,09,51,3.60
2019,03,06,09,52,3.60
2019,03,06,09,53,3.60
2019,03,06,09,54,3.70
2019,03,06,09,55,3.70
2019,03,06,09,56,3.70
2019,03,06,09,57,3.70
2019,03,06,09,58,3.70
2019,03,06,09,59,3.70
2019,03,06,10,00,3.70
2019,03,06,10,01,3.70
2019,03,06,10,02,3.70
2019,03,06,10,03,3.70
2019,03,06,10,04,3.70
2019,03,06,10,05,3.70
2019,03,06,10,06,3.70
2019,03,06,10,07,3.80
2019,03,06,10,08,3.80
2019,03,06,10,09,3.80
2019,03,06,10,10,3.80
2019,03,06,10,11,3.90
2019,03,06,10,12,3.90
2019,03,06,10,13,4.00
2019,03,06,10,14,4.00
2019,03,06,10,15,4.10
2019,03,06,10,16,4.20
2019,03,06,10,17,4.30
2019,03,06,10,18,4.30
2019,03,06,10,19,4.40
2019,03,06,10,20,4.50
2019,03,06,10,21,4.60
2019,03,06,10,22,4.60
2019,03,06,10,23,4.60
2019,03,06,10,24,4.50
2019,03,06,10,25,4.60
2019,03,06,10,26,4.60
2019,03,06,10,27,4.60
2019,03,06,10,28,4.60
2019,03,06,10,29,4.60
2019,03,06,10,30,4.60
2019,03,06,10,31,4.70
2019,03,06,10,32,4.70
2019,03,06,10,33,4.70
2019,03,06,10,34,4.80
2019,03,06,10,35,4.70
2019,03,06,10,36,4.70
2019,03,06,10,37,4.70
2019,03,06,10,38,4.70
2019,03,06,10,39,4.70
2019,03,06,10,40,4.70
2019,03,06,10,41,4.80
2019,03,06,10,42,4.80
2019,03,06,10,43,4.90
2019,03,06,10,44,4.90
2019,03,06,10,45,4.90
2019,03,06,10,46,4.90
2019,03,06,10,47,4.80
2019,03,06,10,48,4.80
2019,03,06,10,49,4.80
2019,03,06,10,50,4.80
2019,03,06,10,51,4.80
2019,03,06,10,52,4.90
2019,03,06,10,53,5.00
2019,03,06,10,54,5.00
2019,03,06,10,55,5.00
2019,03,06,10,56,5.10
2019,03,06,10,57,5.00
2019,03,06,10,58,5.00
2019,03,06,10,59,4.90
2019,03,06,11,00,4.90
2019,03,06,11,01,4.90
2019,03,06,11,02,4.90
2019,03,06,11,03,4.90
2019,03,06,11,04,4.90
2019,03,06,11,05,5.00
2019,03,06,11,06,5.10
2019,03,06,11,07,5.10
2019,03,06,11,08,5.10
2019,03,06,11,09,5.10
2019,03,06,11,10,5.00
2019,03,06,11,11,5.10
2019,03,06,11,12,5.10
2019,03,06,11,13,5.00
2019,03,06,11,14,5.00
2019,03,06,11,15,5.00
2019,03,06,11,16,5.00
2019,03,06,11,17,5.00
2019,03,06,11,18,5.10
2019,03,06,11,19,5.10
2019,03,06,11,20,5.10
2019,03,06,11,21,5.20
2019,03,06,11,22,5.20
2019,03,06,11,23,5.20
2019,03,06,11,24,5.20
2019,03,06,11,25,5.20
2019,03,06,11,26,5.20
2019,03,06,11,27,5.20
2019,03,06,11,28,5.20
2019,03,06,11,29,5.20
2019,03,06,11,30,5.20
2019,03,06,11,31,5.20
2019,03,06,11,32,5.10
2019,03,06,11,33,5.20
2019,03,06,11,34,5.20
2019,03,06,11,35,5.20
2019,03,06,11,36,5.20
2019,03,06,11,37,5.20
2019,03,06,11,38,5.20
2019,03,06,11,39,5.30
2019,03,06,11,40,5.30
2019,03,06,11,41,5.30
2019,03,06,11,42,5.40
2019,03,06,11,43,5.50
2019,03,06,11,44,5.60
2019,03,06,11,45,5.70
2019,03,06,11,46,5.80
2019,03,06,11,47,5.80
2019,03,06,11,48,5.90
2019,03,06,11,49,6.00
2019,03,06,11,50,6.00
2019,03,06,11,51,6.10
2019,03,06,11,52,6.10
2019,03,06,11,53,6.10
2019,03,06,11,54,6.00
2019,03,06,11,55,6.00
2019,03,06,11,56,5.90
2019,03,06,11,57,5.90
2019,03,06,11,58,5.90
2019,03,06,11,59,5.80
2019,03,06,12,00,5.80
2019,03,06,12,01,5.80
2019,03,06,12,02,5.80
2019,03,06,12,03,5.80
2019,03,06,12,04,5.80
2019,03,06,12,05,5.80
2019,03,06,12,06,5.90
2019,03,06,12,07,5.90
2019,03,06,12,08,6.00
2019,03,06,12,09,6.10
2019,03,06,12,10,6.10
2019,03,06,12,11,6.20
2019,03,06,12,12,6.30
2019,03,06,12,13,6.50
2019,03,06,12,14,6.60
2019,03,06,12,15,6.70
2019,03,06,12,16,6.80
2019,03,06,12,17,6.90
2019,03,06,12,18,7.00
2019,03,06,12,19,7.00
2019,03,06,12,20,7.10
2019,03,06,12,21,7.20
2019,03,06,12,22,7.20
2019,03,06,12,23,7.30
2019,03,06,12,24,7.30
2019,03,06,12,25,7.30
2019,03,06,12,26,7.30
2019,03,06,12,27,7.30
2019,03,06,12,28,7.30
2019,03,06,12,29,7.30
2019,03,06,12,30,7.40
2019,03,06,12,31,7.40
2019,03,06,12,32,7.40
2019,03,06,12,33,7.50
2019,03,06,12,34,7.60
2019,03,06,12,35,7.60
2019,03,06,12,36,7.50
2019,03,06,12,37,7.40
2019,03,06,12,38,7.40
2019,03,06,12,39,7.40
2019,03,06,12,40,7.40
2019,03,06,12,41,7.50
2019,03,06,12,42,7.50
2019,03,06,12,43,7.50
2019,03,06,12,44,7.50
2019,03,06,12,45,7.40
2019,03,06,12,46,7.40
2019,03,06,12,47,7.30
2019,03,06,12,48,7.20
2019,03,06,12,49,7.20
2019,03,06,12,50,7.10
2019,03,06,12,51,7.00
2019,03,06,12,52,7.00
2019,03,06,12,53,7.00
2019,03,06,12,54,7.00
2019,03,06,12,55,7.00
2019,03,06,12,56,6.90
2019,03,06,12,57,6.90
2019,03,06,12,58,6.90
2019,03,06,12,59,6.90
2019,03,06,13,00,6.90
2019,03,06,13,01,6.90
2019,03,06,13,02,7.00
2019,03,06,13,03,7.00
2019,03,06,13,04,7.10
2019,03,06,13,05,7.00
2019,03,06,13,06,6.90
2019,03,06,13,07,6.90
2019,03,06,13,08,6.90
2019,03,06,13,09,6.90
2019,03,06,13,10,6.90
2019,03,06,13,11,6.90
2019,03,06,13,12,6.90
2019,03,06,13,13,6.90
2019,03,06,13,14,6.90
2019,03,06,13,15,6.90
2019,03,06,13,16,7.00
2019,03,06,13,17,7.00
2019,03,06,13,18,6.90
2019,03,06,13,19,6.90
2019,03,06,13,20,6.90
2019,03,06,13,21,6.90
2019,03,06,13,22,6.90
2019,03,06,13,23,7.00
2019,03,06,13,24,7.00
2019,03,06,13,25,7.10
2019,03,06,13,26,7.20
2019,03,06,13,27,7.30
2019,03,06,13,28,7.40
2019,03,06,13,29,7.50
2019,03,06,13,30,7.60
2019,03,06,13,31,7.70
2019,03,06,13,32,7.70
2019,03,06,13,33,7.70
2019,03,06,13,34,7.70
2019,03,06,13,35,7.60
2019,03,06,13,36,7.60
2019,03,06,13,37,7.70
2019,03,06,13,38,7.70
2019,03,06,13,39,7.70
2019,03,06,13,40,7.70
2019,03,06,13,41,7.70
2019,03,06,13,42,7.70
2019,03,06,13,43,7.70
2019,03,06,13,44,7.70
2019,03,06,13,45,7.60
2019,03,06,13,46,7.60
2019,03,06,13,47,7.60
2019,03,06,13,48,7.60
2019,03,06,13,49,7.60
2019,03,06,13,50,7.60
2019,03,06,13,51,7.60
2019,03,06,13,52,7.60
2019,03,06,13,53,7.70
2019,03,06,13,54,7.70
2019,03,06,13,55,7.70
2019,03,06,13,56,7.80
2019,03,06,13,57,7.90
2019,03,06,13,58,7.90
2019,03,06,13,59,7.90
2019,03,06,14,00,7.90
2019,03,06,14,01,8.00
2019,03,06,14,02,8.00
2019,03,06,14,03,8.10
2019,03,06,14,04,8.10
2019,03,06,14,05,8.10
2019,03,06,14,06,8.10
2019,03,06,14,07,8.10
2019,03,06,14,08,8.10
2019,03,06,14,09,8.00
2019,03,06,14,10,8.00
2019,03,06,14,11,8.00
2019,03,06,14,12,8.00
2019,03,06,14,13,7.90
2019,03,06,14,14,7.90
2019,03,06,14,15,8.00
2019,03,06,14,16,8.00
2019,03,06,14,17,8.10
2019,03,06,14,18,8.20
2019,03,06,14,19,8.20
2019,03,06,14,20,8.30
2019,03,06,14,21,8.30
2019,03,06,14,22,8.30
2019,03,06,14,23,8.30
2019,03,06,14,24,8.30
2019,03,06,14,25,8.20
2019,03,06,14,26,8.10
2019,03,06,14,27,8.00
2019,03,06,14,28,7.90
2019,03,06,14,29,7.80
2019,03,06,14,30,7.70
2019,03,06,14,31,7.60
2019,03,06,14,32,7.60
2019,03,06,14,33,7.50
2019,03,06,14,34,7.40
2019,03,06,14,35,7.30
2019,03,06,14,36,7.30
2019,03,06,14,37,7.30
2019,03,06,14,38,7.30
2019,03,06,14,39,7.40
2019,03,06,14,40,7.40
2019,03,06,14,41,7.40
2019,03,06,14,42,7.40
2019,03,06,14,43,7.40
2019,03,06,14,44,7.40
2019,03,06,14,45,7.40
2019,03,06,14,46,7.30
2019,03,06,14,47,7.30
2019,03,06,14,48,7.20
2019,03,06,14,49,7.20
2019,03,06,14,50,7.10
2019,03,06,14,51,7.10
2019,03,06,14,52,7.00
2019,03,06,14,53,6.90
2019,03,06,14,54,6.90
2019,03,06,14,55,6.90
2019,03,06,14,56,7.00
2019,03,06,14,57,7.00
2019,03,06,14,58,7.10
2019,03,06,14,59,7.20
2019,03,06,15,00,7.20
2019,03,06,15,01,7.20
2019,03,06,15,02,7.20
2019,03,06,15,03,7.20
2019,03,06,15,04,7.20
2019,03,06,15,05,7.20
2019,03,06,15,06,7.20
2019,03,06,15,07,7.20
2019,03,06,15,08,7.20
2019,03,06,15,09,7.30
2019,03,06,15,10,7.30
2019,03,06,15,11,7.30
2019,03,06,15,12,7.40
2019,03,06,15,13,7.40
2019,03,06,15,14,7.50
2019,03,06,15,15,7.50
2019,03,06,15,16,7.50
2019,03,06,15,17,7.60
2019,03,06,15,18,7.60
2019,03,06,15,19,7.60
2019,03,06,15,20,7.70
2019,03,06,15,21,7.70
2019,03,06,15,22,7.80
2019,03,06,15,23,7.90
2019,03,06,15,24,8.00
2019,03,06,15,25,8.10
2019,03,06,15,26,8.20
2019,03,06,15,27,8.20
2019,03,06,15,28,8.20
2019,03,06,15,29,8.20
2019,03,06,15,30,8.10
2019,03,06,15,31,8.00
2019,03,06,15,32,7.90
2019,03,06,15,33,7.80
2019,03,06,15,34,7.80
2019,03,06,15,35,7.70
2019,03,06,15,36,7.70
2019,03,06,15,37,7.70
2019,03,06,15,38,7.70
2019,03,06,15,39,7.70
2019,03,06,15,40,7.60
2019,03,06,15,41,7.60
2019,03,06,15,42,7.60
2019,03,06,15,43,7.50
2019,03,06,15,44,7.50
2019,03,06,15,45,7.50
2019,03,06,15,46,7.40
2019,03,06,15,47,7.40
2019,03,06,15,48,7.40
2019,03,06,15,49,7.30
2019,03,06,15,50,7.30
2019,03,06,15,51,7.30
2019,03,06,15,52,7.30
2019,03,06,15,53,7.40
2019,03,06,15,54,7.40
2019,03,06,15,55,7.30
2019,03,06,15,56,7.30
2019,03,06,15,57,7.40
2019,03,06,15,58,7.40
2019,03,06,15,59,7.40
2019,03,06,16,00,7.50
2019,03,06,16,01,7.50
2019,03,06,16,02,7.60
2019,03,06,16,03,7.60
2019,03,06,16,04,7.60
2019,03,06,16,05,7.60
2019,03,06,16,06,7.50
2019,03,06,16,07,7.50
2019,03,06,16,08,7.50
2019,03,06,16,09,7.50
2019,03,06,16,10,7.50
2019,03,06,16,11,7.50
2019,03,06,16,12,7.50
2019,03,06,16,13,7.40
2019,03,06,16,14,7.40
2019,03,06,16,15,7.30
2019,03,06,16,16,7.30
2019,03,06,16,17,7.30
2019,03,06,16,18,7.30
2019,03,06,16,19,7.30
2019,03,06,16,20,7.30
2019,03,06,16,21,7.30
2019,03,06,16,22,7.30
2019,03,06,16,23,7.20
2019,03,06,16,24,7.20
2019,03,06,16,25,7.10
2019,03,06,16,26,7.10
2019,03,06,16,27,7.10
2019,03,06,16,28,7.10
2019,03,06,16,29,7.10
2019,03,06,16,30,7.00
2019,03,06,16,31,7.00
2019,03,06,16,32,7.10
2019,03,06,16,33,7.10
2019,03,06,16,34,7.10
2019,03,06,16,35,7.00
2019,03,06,16,36,7.00
2019,03,06,16,37,7.00
2019,03,06,16,38,7.00
2019,03,06,16,39,7.10
2019,03,06,16,40,7.10
2019,03,06,16,41,7.10
2019,03,06,16,42,7.10
2019,03,06,16,43,7.10
2019,03,06,16,44,7.10
2019,03,06,16,45,7.10
2019,03,06,16,46,7.10
2019,03,06,16,47,7.10
2019,03,06,16,48,7.10
2019,03,06,16,49,7.00
2019,03,06,16,50,7.00
2019,03,06,16,51,6.90
2019,03,06,16,52,6.80
2019,03,06,16,53,6.70
2019,03,06,16,54,6.70
2019,03,06,16,55,6.60
2019,03,06,16,56,6.50
2019,03,06,16,57,6.50
2019,03,06,16,58,6.50
2019,03,06,16,59,6.40
2019,03,06,17,00,6.30
2019,03,06,17,01,6.30
2019,03,06,17,02,6.20
2019,03,06,17,03,6.20
2019,03,06,17,04,6.20
2019,03,06,17,05,6.10
2019,03,06,17,06,6.10
2019,03,06,17,07,6.10
2019,03,06,17,08,6.10
2019,03,06,17,09,6.10
2019,03,06,17,10,6.10
2019,03,06,17,11,6.10
2019,03,06,17,12,6.10
2019,03,06,17,13,6.10
2019,03,06,17,14,6.10
2019,03,06,17,15,6.00
2019,03,06,17,16,6.00
2019,03,06,17,17,5.90
2019,03,06,17,18,5.90
2019,03,06,17,19,5.80
2019,03,06,17,20,5.80
2019,03,06,17,21,5.80
2019,03,06,17,22,5.80
2019,03,06,17,23,5.70
2019,03,06,17,24,5.70
2019,03,06,17,25,5.70
2019,03,06,17,26,5.60
2019,03,06,17,27,5.60
2019,03,06,17,28,5.50
2019,03,06,17,29,5.50
2019,03,06,17,30,5.40
2019,03,06,17,31,5.40
2019,03,06,17,32,5.30
2019,03,06,17,33,5.30
2019,03,06,17,34,5.30
2019,03,06,17,35,5.20
2019,03,06,17,36,5.20
2019,03,06,17,37,5.10
2019,03,06,17,38,5.00
2019,03,06,17,39,4.90
2019,03,06,17,40,4.90
2019,03,06,17,41,4.80
2019,03,06,17,42,4.80
2019,03,06,17,43,4.70